Time,TemperatureF,DewpointF,PressureIn,WindDirection,WindDirectionDegrees,WindSpeedMPH,WindSpeedGustMPH,Humidity,HourlyPrecipIn,Conditions,Clouds,dailyrainin,SoftwareType,DateUTC
2013-09-29 00:00:00,63.2,57.3,30.11,South,173,0.0,6.0,81,0.00,,---,0.00,VWS V14.01,2013-09-29 04:00:00,
2013-09-29 00:01:00,63.2,57.3,30.12,South,173,0.0,2.0,81,0.00,,---,0.00,VWS V14.01,2013-09-29 04:01:00,
2013-09-29 00:06:00,63.0,57.4,30.11,South,175,0.0,2.0,82,0.00,,---,0.00,VWS V14.01,2013-09-29 04:06:00,
2013-09-29 00:11:00,62.9,57.3,30.12,South,186,0.0,5.0,82,0.00,,---,0.00,VWS V14.01,2013-09-29 04:11:00,
2013-09-29 00:16:00,62.7,57.1,30.12,South,186,0.0,5.0,82,0.00,,---,0.00,VWS V14.01,2013-09-29 04:16:00,
2013-09-29 00:21:00,62.6,58.0,30.12,South,186,0.0,5.0,85,0.00,,---,0.00,VWS V14.01,2013-09-29 04:21:00,
2013-09-29 00:26:00,62.4,57.2,30.12,South,186,0.0,5.0,83,0.00,,---,0.00,VWS V14.01,2013-09-29 04:26:00,
2013-09-29 00:30:00,62.4,57.2,30.12,South,186,0.0,5.0,83,0.00,,---,0.00,VWS V14.01,2013-09-29 04:30:00,
2013-09-29 00:31:00,62.3,57.4,30.12,South,186,0.0,0.0,84,0.00,,---,0.00,VWS V14.01,2013-09-29 04:31:00,
2013-09-29 00:36:00,62.2,57.3,30.12,South,186,0.0,2.0,84,0.00,,---,0.00,VWS V14.01,2013-09-29 04:36:00,
2013-09-29 00:42:00,62.2,57.3,30.12,South,186,0.0,2.0,84,0.00,,---,0.00,VWS V14.01,2013-09-29 04:42:00,
2013-09-29 00:47:00,62.1,57.2,30.12,South,186,3.0,5.0,84,0.00,,---,0.00,VWS V14.01,2013-09-29 04:47:00,
2013-09-29 00:52:00,62.0,57.5,30.12,SSE,155,0.0,5.0,85,0.00,,---,0.00,VWS V14.01,2013-09-29 04:52:00,
2013-09-29 00:57:00,61.8,57.2,30.13,SSE,155,0.0,5.0,85,0.00,,---,0.00,VWS V14.01,2013-09-29 04:57:00,
2013-09-29 01:00:00,61.8,57.2,30.12,SSE,155,0.0,5.0,85,0.00,,---,0.00,VWS V14.01,2013-09-29 05:00:00,
2013-09-29 01:02:00,61.7,57.2,30.12,SSE,155,0.0,0.0,85,0.00,,---,0.00,VWS V14.01,2013-09-29 05:02:00,
2013-09-29 01:07:00,61.6,57.4,30.12,SSE,155,0.0,2.0,86,0.00,,---,0.00,VWS V14.01,2013-09-29 05:07:00,
2013-09-29 01:12:00,61.5,57.3,30.12,SSE,155,1.0,2.0,86,0.00,,---,0.00,VWS V14.01,2013-09-29 05:12:00,
2013-09-29 01:17:00,61.4,57.2,30.12,SSE,155,0.0,2.0,86,0.00,,---,0.00,VWS V14.01,2013-09-29 05:17:00,
2013-09-29 01:22:00,61.2,57.0,30.12,SSE,155,0.0,2.0,86,0.00,,---,0.00,VWS V14.01,2013-09-29 05:22:00,
2013-09-29 01:27:00,61.1,57.2,30.12,SSE,155,0.0,2.0,87,0.00,,---,0.00,VWS V14.01,2013-09-29 05:27:00,
2013-09-29 01:30:00,61.0,57.1,30.12,SSE,155,0.0,2.0,87,0.00,,---,0.00,VWS V14.01,2013-09-29 05:30:00,
2013-09-29 01:32:00,60.9,57.0,30.12,SSE,155,0.0,1.0,87,0.00,,---,0.00,VWS V14.01,2013-09-29 05:32:00,
2013-09-29 01:37:00,60.7,56.8,30.12,SSE,155,0.0,1.0,87,0.00,,---,0.00,VWS V14.01,2013-09-29 05:37:00,
2013-09-29 01:42:00,60.6,56.7,30.12,SSE,155,0.0,1.0,87,0.00,,---,0.00,VWS V14.01,2013-09-29 05:42:00,
2013-09-29 01:47:00,60.5,56.6,30.12,SSE,155,0.0,1.0,87,0.00,,---,0.00,VWS V14.01,2013-09-29 05:47:00,
2013-09-29 01:52:00,60.4,56.8,30.12,SSE,155,0.0,1.0,88,0.00,,---,0.00,VWS V14.01,2013-09-29 05:52:00,
2013-09-29 01:57:00,60.2,56.6,30.12,SSE,155,0.0,1.0,88,0.00,,---,0.00,VWS V14.01,2013-09-29 05:57:00,
2013-09-29 02:00:00,60.2,56.6,30.12,SSE,155,0.0,1.0,88,0.00,,---,0.00,VWS V14.01,2013-09-29 06:00:00,
2013-09-29 02:02:00,60.1,56.5,30.12,SSE,155,0.0,0.0,88,0.00,,---,0.00,VWS V14.01,2013-09-29 06:02:00,
2013-09-29 02:07:00,60.0,56.4,30.12,SSE,155,0.0,0.0,88,0.00,,---,0.00,VWS V14.01,2013-09-29 06:07:00,
2013-09-29 02:12:00,59.9,56.7,30.12,SSE,155,0.0,1.0,89,0.00,,---,0.00,VWS V14.01,2013-09-29 06:12:00,
2013-09-29 02:17:00,59.8,56.6,30.12,SSE,155,0.0,1.0,89,0.00,,---,0.00,VWS V14.01,2013-09-29 06:17:00,
2013-09-29 02:22:00,59.7,56.5,30.11,SSE,155,0.0,1.0,89,0.00,,---,0.00,VWS V14.01,2013-09-29 06:22:00,
2013-09-29 02:27:00,59.6,56.4,30.11,SSE,155,0.0,2.0,89,0.00,,---,0.00,VWS V14.01,2013-09-29 06:27:00,
2013-09-29 02:30:00,59.5,56.3,30.11,SSE,155,0.0,2.0,89,0.00,,---,0.00,VWS V14.01,2013-09-29 06:30:00,
2013-09-29 02:32:00,59.5,56.3,30.11,SSE,155,0.0,0.0,89,0.00,,---,0.00,VWS V14.01,2013-09-29 06:32:00,
2013-09-29 02:37:00,59.4,56.5,30.11,SSE,155,0.0,2.0,90,0.00,,---,0.00,VWS V14.01,2013-09-29 06:37:00,
2013-09-29 02:42:00,59.3,56.4,30.10,SSE,155,0.0,2.0,90,0.00,,---,0.00,VWS V14.01,2013-09-29 06:42:00,
2013-09-29 02:48:00,59.2,56.3,30.11,SSE,155,0.0,2.0,90,0.00,,---,0.00,VWS V14.01,2013-09-29 06:48:00,
2013-09-29 02:53:00,59.1,56.2,30.10,SSE,155,0.0,2.0,90,0.00,,---,0.00,VWS V14.01,2013-09-29 06:53:00,
2013-09-29 02:58:00,59.0,56.1,30.10,SSE,155,0.0,3.0,90,0.00,,---,0.00,VWS V14.01,2013-09-29 06:58:00,
2013-09-29 03:00:00,59.0,56.4,30.10,SSE,155,1.0,3.0,91,0.00,,---,0.00,VWS V14.01,2013-09-29 07:00:00,
2013-09-29 03:03:00,58.9,56.3,30.10,SSE,155,0.0,1.0,91,0.00,,---,0.00,VWS V14.01,2013-09-29 07:03:00,
2013-09-29 03:08:00,58.9,56.3,30.10,SSE,155,0.0,2.0,91,0.00,,---,0.00,VWS V14.01,2013-09-29 07:08:00,
2013-09-29 03:13:00,58.9,56.3,30.10,SSE,155,0.0,2.0,91,0.00,,---,0.00,VWS V14.01,2013-09-29 07:13:00,
2013-09-29 03:18:00,58.8,56.2,30.10,SSE,155,0.0,2.0,91,0.00,,---,0.00,VWS V14.01,2013-09-29 07:18:00,
2013-09-29 03:23:00,58.8,56.2,30.10,SSE,155,0.0,2.0,91,0.00,,---,0.00,VWS V14.01,2013-09-29 07:23:00,
2013-09-29 03:28:00,58.8,56.2,30.10,SSE,155,0.0,4.0,91,0.00,,---,0.00,VWS V14.01,2013-09-29 07:28:00,
2013-09-29 03:30:00,58.8,56.2,30.10,SSE,155,0.0,4.0,91,0.00,,---,0.00,VWS V14.01,2013-09-29 07:30:00,
2013-09-29 03:33:00,58.8,56.2,30.10,SSE,155,0.0,0.0,91,0.00,,---,0.00,VWS V14.01,2013-09-29 07:33:00,
2013-09-29 03:38:00,58.7,56.1,30.10,SSE,155,0.0,1.0,91,0.00,,---,0.00,VWS V14.01,2013-09-29 07:38:00,
2013-09-29 03:43:00,58.7,56.1,30.10,SSE,155,0.0,1.0,91,0.00,,---,0.00,VWS V14.01,2013-09-29 07:43:00,
2013-09-29 03:48:00,58.6,56.0,30.10,SSE,155,0.0,1.0,91,0.00,,---,0.00,VWS V14.01,2013-09-29 07:48:00,
2013-09-29 03:53:00,58.5,55.9,30.10,SSE,155,0.0,1.0,91,0.00,,---,0.00,VWS V14.01,2013-09-29 07:53:00,
2013-09-29 03:58:00,58.5,55.9,30.10,SSE,155,0.0,1.0,91,0.00,,---,0.00,VWS V14.01,2013-09-29 07:58:00,
2013-09-29 04:00:00,58.4,55.8,30.10,SSE,155,0.0,1.0,91,0.00,,---,0.00,VWS V14.01,2013-09-29 08:00:00,
2013-09-29 04:03:00,58.4,56.1,30.10,SSE,155,0.0,0.0,92,0.00,,---,0.00,VWS V14.01,2013-09-29 08:03:00,
2013-09-29 04:08:00,58.3,56.0,30.10,SSE,155,0.0,2.0,92,0.00,,---,0.00,VWS V14.01,2013-09-29 08:08:00,
2013-09-29 04:13:00,58.3,56.0,30.10,SSE,155,0.0,2.0,92,0.00,,---,0.00,VWS V14.01,2013-09-29 08:13:00,
2013-09-29 04:18:00,58.2,55.9,30.09,SSE,155,0.0,2.0,92,0.00,,---,0.00,VWS V14.01,2013-09-29 08:18:00,
2013-09-29 04:23:00,58.2,55.9,30.09,SSE,155,0.0,2.0,92,0.00,,---,0.00,VWS V14.01,2013-09-29 08:23:00,
2013-09-29 04:28:00,58.2,55.9,30.09,SSE,155,0.0,2.0,92,0.00,,---,0.00,VWS V14.01,2013-09-29 08:28:00,
2013-09-29 04:30:00,58.1,55.8,30.09,SSE,155,0.0,2.0,92,0.00,,---,0.00,VWS V14.01,2013-09-29 08:30:00,
2013-09-29 04:33:00,58.1,55.8,30.09,SSE,155,0.0,0.0,92,0.00,,---,0.00,VWS V14.01,2013-09-29 08:33:00,
2013-09-29 04:38:00,58.0,55.7,30.09,SSE,155,0.0,0.0,92,0.00,,---,0.00,VWS V14.01,2013-09-29 08:38:00,
2013-09-29 04:43:00,57.9,55.6,30.09,SSE,155,0.0,2.0,92,0.00,,---,0.00,VWS V14.01,2013-09-29 08:43:00,
2013-09-29 04:48:00,57.9,55.6,30.09,SSE,155,0.0,2.0,92,0.00,,---,0.00,VWS V14.01,2013-09-29 08:48:00,
2013-09-29 04:53:00,57.8,55.8,30.09,SSE,155,0.0,2.0,93,0.00,,---,0.00,VWS V14.01,2013-09-29 08:53:00,
2013-09-29 04:58:00,57.8,55.8,30.10,SSE,155,0.0,2.0,93,0.00,,---,0.00,VWS V14.01,2013-09-29 08:58:00,
2013-09-29 05:00:00,57.8,55.8,30.10,SSE,155,0.0,2.0,93,0.00,,---,0.00,VWS V14.01,2013-09-29 09:00:00,
2013-09-29 05:03:00,57.7,55.7,30.10,SSE,155,0.0,0.0,93,0.00,,---,0.00,VWS V14.01,2013-09-29 09:03:00,
2013-09-29 05:08:00,57.7,55.7,30.10,SSE,155,0.0,0.0,93,0.00,,---,0.00,VWS V14.01,2013-09-29 09:08:00,
2013-09-29 05:13:00,57.6,55.6,30.10,SSE,155,0.0,0.0,93,0.00,,---,0.00,VWS V14.01,2013-09-29 09:13:00,
2013-09-29 05:18:00,57.6,55.6,30.10,SSE,155,0.0,2.0,93,0.00,,---,0.00,VWS V14.01,2013-09-29 09:18:00,
2013-09-29 05:23:00,57.5,55.5,30.10,SSE,155,0.0,5.0,93,0.00,,---,0.00,VWS V14.01,2013-09-29 09:23:00,
2013-09-29 05:28:00,57.5,55.5,30.10,SSE,155,0.0,5.0,93,0.00,,---,0.00,VWS V14.01,2013-09-29 09:28:00,
2013-09-29 05:30:00,57.5,55.5,30.10,SSE,155,0.0,5.0,93,0.00,,---,0.00,VWS V14.01,2013-09-29 09:30:00,
2013-09-29 05:33:00,57.5,55.5,30.10,SSE,155,0.0,1.0,93,0.00,,---,0.00,VWS V14.01,2013-09-29 09:33:00,
2013-09-29 05:38:00,57.5,55.5,30.10,SSE,155,0.0,1.0,93,0.00,,---,0.00,VWS V14.01,2013-09-29 09:38:00,
2013-09-29 05:43:00,57.5,55.5,30.11,SSE,155,0.0,2.0,93,0.00,,---,0.00,VWS V14.01,2013-09-29 09:43:00,
2013-09-29 05:48:00,57.5,55.5,30.11,SSE,155,0.0,4.0,93,0.00,,---,0.00,VWS V14.01,2013-09-29 09:48:00,
2013-09-29 05:53:00,57.5,55.5,30.11,SSE,155,0.0,4.0,93,0.00,,---,0.00,VWS V14.01,2013-09-29 09:53:00,
2013-09-29 05:58:00,57.6,55.6,30.11,SSE,155,0.0,4.0,93,0.00,,---,0.00,VWS V14.01,2013-09-29 09:58:00,
2013-09-29 06:00:00,57.5,55.5,30.11,SSE,155,0.0,4.0,93,0.00,,---,0.00,VWS V14.01,2013-09-29 10:00:00,
2013-09-29 06:03:00,57.5,55.5,30.11,SE,140,0.0,5.0,93,0.00,,---,0.00,VWS V14.01,2013-09-29 10:03:00,
2013-09-29 06:08:00,57.5,55.5,30.11,SE,140,0.0,5.0,93,0.00,,---,0.00,VWS V14.01,2013-09-29 10:08:00,
2013-09-29 06:14:00,57.6,55.6,30.11,SSE,156,2.0,5.0,93,0.00,,---,0.00,VWS V14.01,2013-09-29 10:14:00,
2013-09-29 06:19:00,57.6,55.6,30.11,SE,143,0.0,7.0,93,0.00,,---,0.00,VWS V14.01,2013-09-29 10:19:00,
2013-09-29 06:24:00,57.6,55.6,30.11,SE,136,3.0,7.0,93,0.00,,---,0.00,VWS V14.01,2013-09-29 10:24:00,
2013-09-29 06:29:00,57.6,55.6,30.11,ESE,121,0.0,7.0,93,0.00,,---,0.00,VWS V14.01,2013-09-29 10:29:00,
2013-09-29 06:30:00,57.6,55.6,30.11,ESE,121,0.0,7.0,93,0.00,,---,0.00,VWS V14.01,2013-09-29 10:30:00,
2013-09-29 06:34:00,57.6,55.6,30.11,SE,133,0.0,0.0,93,0.00,,---,0.00,VWS V14.01,2013-09-29 10:34:00,
2013-09-29 06:39:00,57.6,55.6,30.11,South,176,1.0,7.0,93,0.00,,---,0.00,VWS V14.01,2013-09-29 10:39:00,
2013-09-29 06:44:00,57.5,55.5,30.12,SSE,161,0.0,7.0,93,0.00,,---,0.00,VWS V14.01,2013-09-29 10:44:00,
2013-09-29 06:49:00,57.5,55.5,30.12,SSE,152,0.0,7.0,93,0.00,,---,0.00,VWS V14.01,2013-09-29 10:49:00,
2013-09-29 06:54:00,57.4,55.4,30.12,SSE,152,2.0,7.0,93,0.00,,---,0.00,VWS V14.01,2013-09-29 10:54:00,
2013-09-29 06:59:00,57.4,55.4,30.12,SE,128,0.0,7.0,93,0.00,,---,0.00,VWS V14.01,2013-09-29 10:59:00,
2013-09-29 07:00:00,57.4,55.4,30.12,SE,128,0.0,7.0,93,0.00,,---,0.00,VWS V14.01,2013-09-29 11:00:00,
2013-09-29 07:04:00,57.3,55.3,30.12,SE,139,0.0,3.0,93,0.00,,---,0.00,VWS V14.01,2013-09-29 11:04:00,
2013-09-29 07:09:00,57.3,55.3,30.12,SE,136,0.0,3.0,93,0.00,,---,0.00,VWS V14.01,2013-09-29 11:09:00,
2013-09-29 07:14:00,57.2,55.2,30.12,SE,139,0.0,5.0,93,0.00,,---,0.00,VWS V14.01,2013-09-29 11:14:00,
2013-09-29 07:19:00,57.2,55.2,30.12,SE,139,0.0,5.0,93,0.00,,---,0.00,VWS V14.01,2013-09-29 11:19:00,
2013-09-29 07:24:00,57.1,55.1,30.12,SE,139,0.0,5.0,93,0.00,,---,0.00,VWS V14.01,2013-09-29 11:24:00,
2013-09-29 07:29:00,57.1,55.1,30.12,SE,139,0.0,0.0,93,0.00,,---,0.00,VWS V14.01,2013-09-29 11:29:00,
2013-09-29 07:30:00,57.1,55.1,30.12,SE,139,0.0,5.0,93,0.00,,---,0.00,VWS V14.01,2013-09-29 11:30:00,
2013-09-29 07:34:00,57.1,55.1,30.12,SE,142,1.0,3.0,93,0.00,,---,0.00,VWS V14.01,2013-09-29 11:34:00,
2013-09-29 07:39:00,57.1,55.1,30.12,SSE,153,0.0,7.0,93,0.00,,---,0.00,VWS V14.01,2013-09-29 11:39:00,
2013-09-29 07:44:00,57.1,55.1,30.12,South,178,2.0,7.0,93,0.00,,---,0.00,VWS V14.01,2013-09-29 11:44:00,
2013-09-29 07:49:00,57.2,55.2,30.12,SSW,192,0.0,8.0,93,0.00,,---,0.00,VWS V14.01,2013-09-29 11:49:00,
2013-09-29 07:54:00,57.3,55.3,30.12,SSE,158,2.0,8.0,93,0.00,,---,0.00,VWS V14.01,2013-09-29 11:54:00,
2013-09-29 07:59:00,57.3,55.3,30.12,South,169,3.0,3.0,93,0.00,,---,0.00,VWS V14.01,2013-09-29 11:59:00,
2013-09-29 08:00:00,57.3,55.3,30.12,SSE,164,1.0,8.0,93,0.00,,---,0.00,VWS V14.01,2013-09-29 12:00:00,
2013-09-29 08:04:00,57.4,55.4,30.12,SSE,155,0.0,8.0,93,0.00,,---,0.00,VWS V14.01,2013-09-29 12:04:00,
2013-09-29 08:09:00,57.5,55.5,30.12,SSE,166,0.0,8.0,93,0.00,,---,0.00,VWS V14.01,2013-09-29 12:09:00,
2013-09-29 08:14:00,57.5,55.5,30.12,SE,143,0.0,8.0,93,0.00,,---,0.00,VWS V14.01,2013-09-29 12:14:00,
2013-09-29 08:19:00,57.6,55.6,30.12,SSE,155,0.0,9.0,93,0.00,,---,0.00,VWS V14.01,2013-09-29 12:19:00,
2013-09-29 08:24:00,57.7,55.7,30.12,SE,142,1.0,9.0,93,0.00,,---,0.00,VWS V14.01,2013-09-29 12:24:00,
2013-09-29 08:29:00,57.8,55.8,30.13,SE,146,0.0,0.0,93,0.00,,---,0.00,VWS V14.01,2013-09-29 12:29:00,
2013-09-29 08:30:00,57.8,55.8,30.13,SE,146,0.0,10.0,93,0.00,,---,0.00,VWS V14.01,2013-09-29 12:30:00,
2013-09-29 08:34:00,57.9,55.9,30.12,SE,142,0.0,7.0,93,0.00,,---,0.00,VWS V14.01,2013-09-29 12:34:00,
2013-09-29 08:39:00,58.1,56.1,30.12,South,173,0.0,9.0,93,0.00,,---,0.00,VWS V14.01,2013-09-29 12:39:00,
2013-09-29 08:44:00,58.2,56.2,30.12,SE,127,1.0,9.0,93,0.00,,---,0.00,VWS V14.01,2013-09-29 12:44:00,
2013-09-29 08:49:00,58.3,56.3,30.12,SSE,150,0.0,9.0,93,0.00,,---,0.00,VWS V14.01,2013-09-29 12:49:00,
2013-09-29 08:54:00,58.6,56.6,30.12,South,190,0.0,9.0,93,0.00,,---,0.00,VWS V14.01,2013-09-29 12:54:00,
2013-09-29 08:59:00,58.8,56.5,30.12,South,183,0.0,1.0,92,0.00,,---,0.00,VWS V14.01,2013-09-29 12:59:00,
2013-09-29 09:00:00,58.8,56.5,30.12,South,191,3.0,9.0,92,0.00,,---,0.00,VWS V14.01,2013-09-29 13:00:00,
2013-09-29 09:04:00,59.0,56.7,30.12,SSE,150,0.0,7.0,92,0.00,,---,0.00,VWS V14.01,2013-09-29 13:04:00,
2013-09-29 09:09:00,59.4,57.1,30.12,SSE,165,3.0,8.0,92,0.00,,---,0.00,VWS V14.01,2013-09-29 13:09:00,
2013-09-29 09:14:00,59.7,57.4,30.12,South,171,0.0,8.0,92,0.00,,---,0.00,VWS V14.01,2013-09-29 13:14:00,
2013-09-29 09:19:00,60.4,58.1,30.12,SSE,165,1.0,8.0,92,0.00,,---,0.00,VWS V14.01,2013-09-29 13:19:00,
2013-09-29 09:24:00,60.9,58.0,30.12,South,181,0.0,8.0,90,0.00,,---,0.00,VWS V14.01,2013-09-29 13:24:00,
2013-09-29 09:29:00,61.3,58.3,30.12,SE,136,3.0,5.0,90,0.00,,---,0.00,VWS V14.01,2013-09-29 13:29:00,
2013-09-29 09:30:00,61.2,58.2,30.12,SSE,159,5.0,10.0,90,0.00,,---,0.00,VWS V14.01,2013-09-29 13:30:00,
2013-09-29 09:34:00,61.9,58.6,30.12,SE,142,0.0,5.0,89,0.00,,---,0.00,VWS V14.01,2013-09-29 13:34:00,
2013-09-29 09:40:00,62.5,58.6,30.12,SSE,149,0.0,5.0,87,0.00,,---,0.00,VWS V14.01,2013-09-29 13:40:00,
2013-09-29 09:45:00,63.0,59.1,30.12,SSE,166,0.0,6.0,87,0.00,,---,0.00,VWS V14.01,2013-09-29 13:45:00,
2013-09-29 09:50:00,63.3,58.4,30.12,South,175,6.0,10.0,84,0.00,,---,0.00,VWS V14.01,2013-09-29 13:50:00,
2013-09-29 09:55:00,63.6,58.7,30.12,South,184,0.0,10.0,84,0.00,,---,0.00,VWS V14.01,2013-09-29 13:55:00,
2013-09-29 10:00:00,63.9,58.6,30.12,SSE,166,3.0,9.0,83,0.00,,---,0.00,VWS V14.01,2013-09-29 14:00:00,
2013-09-29 10:05:00,64.3,58.7,30.12,South,175,7.0,9.0,82,0.00,,---,0.00,VWS V14.01,2013-09-29 14:05:00,
2013-09-29 10:10:00,64.6,59.0,30.12,SSE,148,2.0,10.0,82,0.00,,---,0.00,VWS V14.01,2013-09-29 14:10:00,
2013-09-29 10:15:00,64.8,58.8,30.12,SSE,167,3.0,12.0,81,0.00,,---,0.00,VWS V14.01,2013-09-29 14:15:00,
2013-09-29 10:20:00,65.0,58.7,30.12,SSE,148,5.0,12.0,80,0.00,,---,0.00,VWS V14.01,2013-09-29 14:20:00,
2013-09-29 10:25:00,65.4,58.7,30.12,South,179,0.0,12.0,79,0.00,,---,0.00,VWS V14.01,2013-09-29 14:25:00,
2013-09-29 10:30:00,66.1,58.7,30.12,SE,138,5.0,5.0,77,0.00,,---,0.00,VWS V14.01,2013-09-29 14:30:00,
2013-09-29 10:35:00,66.4,58.2,30.12,SSW,197,1.0,10.0,75,0.00,,---,0.00,VWS V14.01,2013-09-29 14:35:00,
2013-09-29 10:40:00,66.7,58.2,30.12,South,169,3.0,10.0,74,0.00,,---,0.00,VWS V14.01,2013-09-29 14:40:00,
2013-09-29 10:45:00,66.9,58.0,30.12,SSE,168,0.0,10.0,73,0.00,,---,0.00,VWS V14.01,2013-09-29 14:45:00,
2013-09-29 10:50:00,67.5,58.5,30.12,South,182,1.0,10.0,73,0.00,,---,0.00,VWS V14.01,2013-09-29 14:50:00,
2013-09-29 10:55:00,68.2,58.8,30.11,SE,146,4.0,10.0,72,0.00,,---,0.00,VWS V14.01,2013-09-29 14:55:00,
2013-09-29 11:00:00,68.3,57.8,30.11,SSE,155,5.0,8.0,69,0.00,,---,0.00,VWS V14.01,2013-09-29 15:00:00,
2013-09-29 11:05:00,68.3,57.8,30.12,SE,143,0.0,9.0,69,0.00,,---,0.00,VWS V14.01,2013-09-29 15:05:00,
2013-09-29 11:10:00,68.7,57.3,30.11,SE,125,0.0,9.0,67,0.00,,---,0.00,VWS V14.01,2013-09-29 15:10:00,
2013-09-29 11:15:00,69.0,57.2,30.11,South,179,0.0,9.0,66,0.00,,---,0.00,VWS V14.01,2013-09-29 15:15:00,
2013-09-29 11:20:00,69.3,57.9,30.11,South,178,0.0,9.0,67,0.00,,---,0.00,VWS V14.01,2013-09-29 15:20:00,
2013-09-29 11:25:00,69.7,57.0,30.11,SE,140,6.0,11.0,64,0.00,,---,0.00,VWS V14.01,2013-09-29 15:25:00,
2013-09-29 11:30:00,70.1,56.0,30.11,SE,135,1.0,9.0,61,0.00,,---,0.00,VWS V14.01,2013-09-29 15:30:00,
2013-09-29 11:35:00,70.4,56.8,30.11,SSW,198,4.0,11.0,62,0.00,,---,0.00,VWS V14.01,2013-09-29 15:35:00,
2013-09-29 11:40:00,70.5,56.9,30.11,SSE,163,4.0,11.0,62,0.00,,---,0.00,VWS V14.01,2013-09-29 15:40:00,
2013-09-29 11:45:00,70.3,56.7,30.11,South,188,0.0,11.0,62,0.00,,---,0.00,VWS V14.01,2013-09-29 15:45:00,
2013-09-29 11:50:00,70.5,55.0,30.11,SSE,165,3.0,12.0,58,0.00,,---,0.00,VWS V14.01,2013-09-29 15:50:00,
2013-09-29 11:55:00,70.9,55.9,30.10,South,169,4.0,14.0,59,0.00,,---,0.00,VWS V14.01,2013-09-29 15:55:00,
2013-09-29 12:00:00,71.2,55.7,30.11,SE,136,6.0,11.0,58,0.00,,---,0.00,VWS V14.01,2013-09-29 16:00:00,
2013-09-29 12:05:00,71.2,55.2,30.10,SSW,200,5.0,11.0,57,0.00,,---,0.00,VWS V14.01,2013-09-29 16:05:00,
2013-09-29 12:10:00,71.1,55.6,30.10,SE,142,6.0,11.0,58,0.00,,---,0.00,VWS V14.01,2013-09-29 16:10:00,
2013-09-29 12:15:00,71.2,55.7,30.10,SSW,195,1.0,14.0,58,0.00,,---,0.00,VWS V14.01,2013-09-29 16:15:00,
2013-09-29 12:20:00,71.5,56.0,30.10,ESE,123,7.0,14.0,58,0.00,,---,0.00,VWS V14.01,2013-09-29 16:20:00,
2013-09-29 12:25:00,71.6,55.6,30.09,East,97,8.0,14.0,57,0.00,,---,0.00,VWS V14.01,2013-09-29 16:25:00,
2013-09-29 12:30:00,71.7,55.2,30.09,SSE,147,3.0,7.0,56,0.00,,---,0.00,VWS V14.01,2013-09-29 16:30:00,
2013-09-29 12:35:00,71.8,54.8,30.09,SE,146,1.0,13.0,55,0.00,,---,0.00,VWS V14.01,2013-09-29 16:35:00,
2013-09-29 12:40:00,72.2,55.2,30.09,SSE,150,0.0,13.0,55,0.00,,---,0.00,VWS V14.01,2013-09-29 16:40:00,
2013-09-29 12:45:00,72.1,55.6,30.09,SSE,153,0.0,13.0,56,0.00,,---,0.00,VWS V14.01,2013-09-29 16:45:00,
2013-09-29 12:50:00,72.5,55.9,30.09,SE,138,0.0,13.0,56,0.00,,---,0.00,VWS V14.01,2013-09-29 16:50:00,
2013-09-29 12:55:00,72.5,55.4,30.09,SSE,159,7.0,13.0,55,0.00,,---,0.00,VWS V14.01,2013-09-29 16:55:00,
2013-09-29 13:00:00,72.5,55.4,30.09,SE,136,6.0,13.0,55,0.00,,---,0.00,VWS V14.01,2013-09-29 17:00:00,
2013-09-29 13:06:00,72.2,55.7,30.08,ESE,117,1.0,13.0,56,0.00,,---,0.00,VWS V14.01,2013-09-29 17:06:00,
2013-09-29 13:11:00,72.4,55.8,30.08,SE,138,7.0,13.0,56,0.00,,---,0.00,VWS V14.01,2013-09-29 17:11:00,
2013-09-29 13:16:00,72.6,55.0,30.08,SSE,163,4.0,13.0,54,0.00,,---,0.00,VWS V14.01,2013-09-29 17:16:00,
2013-09-29 13:21:00,72.5,56.4,30.07,South,190,7.0,13.0,57,0.00,,---,0.00,VWS V14.01,2013-09-29 17:21:00,
2013-09-29 13:26:00,72.7,55.6,30.07,South,174,0.0,13.0,55,0.00,,---,0.00,VWS V14.01,2013-09-29 17:26:00,
2013-09-29 13:30:00,72.9,54.8,30.07,South,179,5.0,13.0,53,0.00,,---,0.00,VWS V14.01,2013-09-29 17:30:00,
2013-09-29 13:31:00,72.9,55.3,30.07,SE,135,3.0,5.0,54,0.00,,---,0.00,VWS V14.01,2013-09-29 17:31:00,
2013-09-29 13:36:00,73.3,56.2,30.07,SSE,153,0.0,9.0,55,0.00,,---,0.00,VWS V14.01,2013-09-29 17:36:00,
2013-09-29 13:41:00,73.3,56.2,30.06,SSW,196,6.0,10.0,55,0.00,,---,0.00,VWS V14.01,2013-09-29 17:41:00,
2013-09-29 13:46:00,73.1,56.0,30.06,SSE,157,2.0,10.0,55,0.00,,---,0.00,VWS V14.01,2013-09-29 17:46:00,
2013-09-29 13:51:00,73.1,56.0,30.06,ESE,123,10.0,11.0,55,0.00,,---,0.00,VWS V14.01,2013-09-29 17:51:00,
2013-09-29 13:56:00,73.3,55.2,30.05,ESE,111,0.0,11.0,53,0.00,,---,0.00,VWS V14.01,2013-09-29 17:56:00,
2013-09-29 14:00:00,73.8,55.6,30.05,South,179,0.0,11.0,53,0.00,,---,0.00,VWS V14.01,2013-09-29 18:00:00,
2013-09-29 14:01:00,73.8,55.6,30.05,South,183,0.0,6.0,53,0.00,,---,0.00,VWS V14.01,2013-09-29 18:01:00,
2013-09-29 14:06:00,73.9,55.7,30.05,South,184,0.0,6.0,53,0.00,,---,0.00,VWS V14.01,2013-09-29 18:06:00,
2013-09-29 14:11:00,73.9,55.7,30.05,SE,144,0.0,6.0,53,0.00,,---,0.00,VWS V14.01,2013-09-29 18:11:00,
2013-09-29 14:16:00,74.1,55.9,30.04,SE,127,10.0,10.0,53,0.00,,---,0.00,VWS V14.01,2013-09-29 18:16:00,
2013-09-29 14:21:00,74.6,55.8,30.04,ESE,104,0.0,10.0,52,0.00,,---,0.00,VWS V14.01,2013-09-29 18:21:00,
2013-09-29 14:26:00,74.8,56.0,30.04,SSE,163,0.0,12.0,52,0.00,,---,0.00,VWS V14.01,2013-09-29 18:26:00,
2013-09-29 14:30:00,74.6,55.8,30.03,SSE,165,0.0,12.0,52,0.00,,---,0.00,VWS V14.01,2013-09-29 18:30:00,
2013-09-29 14:31:00,74.6,56.9,30.03,SSE,166,0.0,3.0,54,0.00,,---,0.00,VWS V14.01,2013-09-29 18:31:00,
2013-09-29 14:36:00,74.2,55.5,30.03,SSE,159,0.0,10.0,52,0.00,,---,0.00,VWS V14.01,2013-09-29 18:36:00,
2013-09-29 14:41:00,73.9,55.7,30.03,SE,134,0.0,10.0,53,0.00,,---,0.00,VWS V14.01,2013-09-29 18:41:00,
2013-09-29 14:46:00,74.5,55.7,30.03,South,190,6.0,10.0,52,0.00,,---,0.00,VWS V14.01,2013-09-29 18:46:00,
2013-09-29 14:51:00,74.5,55.7,30.03,ESE,115,0.0,10.0,52,0.00,,---,0.00,VWS V14.01,2013-09-29 18:51:00,
2013-09-29 14:56:00,74.6,55.8,30.03,ESE,117,1.0,13.0,52,0.00,,---,0.00,VWS V14.01,2013-09-29 18:56:00,
2013-09-29 15:00:00,74.6,55.8,30.03,SE,146,0.0,13.0,52,0.00,,---,0.00,VWS V14.01,2013-09-29 19:00:00,
2013-09-29 15:01:00,74.9,56.1,30.03,ENE,60,4.0,10.0,52,0.00,,---,0.00,VWS V14.01,2013-09-29 19:01:00,
2013-09-29 15:06:00,75.4,55.5,30.03,East,84,2.0,10.0,50,0.00,,---,0.00,VWS V14.01,2013-09-29 19:06:00,
2013-09-29 15:11:00,75.7,56.3,30.03,SE,133,0.0,10.0,51,0.00,,---,0.00,VWS V14.01,2013-09-29 19:11:00,
2013-09-29 15:16:00,75.8,55.9,30.03,SE,129,1.0,10.0,50,0.00,,---,0.00,VWS V14.01,2013-09-29 19:16:00,
2013-09-29 15:21:00,75.3,55.4,30.02,ESE,106,0.0,10.0,50,0.00,,---,0.00,VWS V14.01,2013-09-29 19:21:00,
2013-09-29 15:26:00,75.2,55.8,30.02,ESE,113,2.0,10.0,51,0.00,,---,0.00,VWS V14.01,2013-09-29 19:26:00,
2013-09-29 15:30:00,75.0,56.2,30.02,South,180,5.0,10.0,52,0.00,,---,0.00,VWS V14.01,2013-09-29 19:30:00,
2013-09-29 15:31:00,74.4,55.7,30.02,SSE,157,5.0,6.0,52,0.00,,---,0.00,VWS V14.01,2013-09-29 19:31:00,
2013-09-29 15:36:00,73.7,55.0,30.02,ESE,107,0.0,9.0,52,0.00,,---,0.00,VWS V14.01,2013-09-29 19:36:00,
2013-09-29 15:41:00,74.3,55.0,30.01,East,92,0.0,9.0,51,0.00,,---,0.00,VWS V14.01,2013-09-29 19:41:00,
2013-09-29 15:46:00,74.8,56.0,30.02,SSE,154,0.0,9.0,52,0.00,,---,0.00,VWS V14.01,2013-09-29 19:46:00,
2013-09-29 15:48:00,74.9,56.1,30.02,SE,132,0.0,9.0,52,0.00,,---,0.00,VWS V14.01,2013-09-29 19:48:00,
2013-09-29 15:53:00,75.0,56.2,30.02,SSE,167,3.0,10.0,52,0.00,,---,0.00,VWS V14.01,2013-09-29 19:53:00,
2013-09-29 15:58:00,74.5,56.3,30.01,SSE,154,1.0,10.0,53,0.00,,---,0.00,VWS V14.01,2013-09-29 19:58:00,
2013-09-29 16:00:00,74.4,56.2,30.01,SE,127,0.0,10.0,53,0.00,,---,0.00,VWS V14.01,2013-09-29 20:00:00,
2013-09-29 16:03:00,74.3,55.6,30.01,South,172,0.0,7.0,52,0.00,,---,0.00,VWS V14.01,2013-09-29 20:03:00,
2013-09-29 16:08:00,74.5,56.3,30.01,SSE,155,1.0,7.0,53,0.00,,---,0.00,VWS V14.01,2013-09-29 20:08:00,
2013-09-29 16:13:00,74.6,55.8,30.01,SE,140,0.0,7.0,52,0.00,,---,0.00,VWS V14.01,2013-09-29 20:13:00,
2013-09-29 16:18:00,74.3,55.0,30.02,SSE,159,0.0,7.0,51,0.00,,---,0.00,VWS V14.01,2013-09-29 20:18:00,
2013-09-29 16:23:00,74.0,55.3,30.01,SSE,148,2.0,7.0,52,0.00,,---,0.00,VWS V14.01,2013-09-29 20:23:00,
2013-09-29 16:28:00,73.6,56.0,30.01,SE,131,0.0,7.0,54,0.00,,---,0.00,VWS V14.01,2013-09-29 20:28:00,
2013-09-29 16:30:00,73.5,55.9,30.01,SE,132,0.0,7.0,54,0.00,,---,0.00,VWS V14.01,2013-09-29 20:30:00,
2013-09-29 16:33:00,73.2,56.1,30.01,SSE,155,2.0,2.0,55,0.00,,---,0.00,VWS V14.01,2013-09-29 20:33:00,
2013-09-29 16:38:00,73.3,55.2,30.01,South,188,6.0,7.0,53,0.00,,---,0.00,VWS V14.01,2013-09-29 20:38:00,
2013-09-29 16:43:00,73.9,56.2,30.02,SSE,157,0.0,7.0,54,0.00,,---,0.00,VWS V14.01,2013-09-29 20:43:00,
2013-09-29 16:48:00,74.0,55.3,30.02,SE,144,0.0,8.0,52,0.00,,---,0.00,VWS V14.01,2013-09-29 20:48:00,
2013-09-29 16:53:00,73.6,56.0,30.02,SSE,164,0.0,8.0,54,0.00,,---,0.00,VWS V14.01,2013-09-29 20:53:00,
2013-09-29 16:58:00,73.1,56.0,30.02,SSE,159,0.0,8.0,55,0.00,,---,0.00,VWS V14.01,2013-09-29 20:58:00,
2013-09-29 17:00:00,73.0,55.4,30.02,SSE,159,0.0,8.0,54,0.00,,---,0.00,VWS V14.01,2013-09-29 21:00:00,
2013-09-29 17:03:00,73.3,56.2,30.02,ENE,61,0.0,1.0,55,0.00,,---,0.00,VWS V14.01,2013-09-29 21:03:00,
2013-09-29 17:08:00,74.1,55.9,30.02,SSW,206,0.0,5.0,53,0.00,,---,0.00,VWS V14.01,2013-09-29 21:08:00,
2013-09-29 17:13:00,74.7,55.9,30.03,ENE,70,3.0,5.0,52,0.00,,---,0.00,VWS V14.01,2013-09-29 21:13:00,
2013-09-29 17:18:00,75.0,55.7,30.02,East,87,0.0,5.0,51,0.00,,---,0.00,VWS V14.01,2013-09-29 21:18:00,
2013-09-29 17:23:00,75.1,56.3,30.02,East,82,0.0,5.0,52,0.00,,---,0.00,VWS V14.01,2013-09-29 21:23:00,
2013-09-29 17:29:00,75.3,55.4,30.02,SE,136,4.0,5.0,50,0.00,,---,0.00,VWS V14.01,2013-09-29 21:29:00,
2013-09-29 17:30:00,75.3,55.4,30.02,SE,136,4.0,5.0,50,0.00,,---,0.00,VWS V14.01,2013-09-29 21:30:00,
2013-09-29 17:34:00,74.6,55.8,30.02,SSE,152,0.0,8.0,52,0.00,,---,0.00,VWS V14.01,2013-09-29 21:34:00,
2013-09-29 17:39:00,74.2,56.0,30.02,SSE,149,0.0,8.0,53,0.00,,---,0.00,VWS V14.01,2013-09-29 21:39:00,
2013-09-29 17:44:00,73.7,56.0,30.02,SSE,165,0.0,8.0,54,0.00,,---,0.00,VWS V14.01,2013-09-29 21:44:00,
2013-09-29 17:49:00,73.7,57.0,30.02,SSE,165,0.0,8.0,56,0.00,,---,0.00,VWS V14.01,2013-09-29 21:49:00,
2013-09-29 17:54:00,74.0,56.8,30.02,SSE,165,0.0,8.0,55,0.00,,---,0.00,VWS V14.01,2013-09-29 21:54:00,
2013-09-29 17:59:00,74.2,56.5,30.02,WSW,248,1.0,8.0,54,0.00,,---,0.00,VWS V14.01,2013-09-29 21:59:00,
2013-09-29 18:00:00,74.2,56.5,30.02,WSW,248,1.0,8.0,54,0.00,,---,0.00,VWS V14.01,2013-09-29 22:00:00,
2013-09-29 18:04:00,74.0,56.3,30.02,WSW,254,1.0,1.0,54,0.00,,---,0.00,VWS V14.01,2013-09-29 22:04:00,
2013-09-29 18:09:00,73.5,55.9,30.02,South,188,0.0,2.0,54,0.00,,---,0.00,VWS V14.01,2013-09-29 22:09:00,
2013-09-29 18:14:00,73.1,56.0,30.02,South,184,0.0,2.0,55,0.00,,---,0.00,VWS V14.01,2013-09-29 22:14:00,
2013-09-29 18:19:00,72.7,56.1,30.02,SE,145,0.0,4.0,56,0.00,,---,0.00,VWS V14.01,2013-09-29 22:19:00,
2013-09-29 18:24:00,72.4,56.3,30.02,SE,145,0.0,4.0,57,0.00,,---,0.00,VWS V14.01,2013-09-29 22:24:00,
2013-09-29 18:29:00,72.1,56.5,30.02,SE,145,0.0,0.0,58,0.00,,---,0.00,VWS V14.01,2013-09-29 22:29:00,
2013-09-29 18:30:00,72.1,56.5,30.02,SE,145,0.0,4.0,58,0.00,,---,0.00,VWS V14.01,2013-09-29 22:30:00,
2013-09-29 18:34:00,71.8,56.7,30.02,SE,145,0.0,0.0,59,0.00,,---,0.00,VWS V14.01,2013-09-29 22:34:00,
2013-09-29 18:39:00,71.6,57.0,30.02,SE,145,0.0,0.0,60,0.00,,---,0.00,VWS V14.01,2013-09-29 22:39:00,
2013-09-29 18:44:00,71.3,57.2,30.02,SE,145,0.0,0.0,61,0.00,,---,0.00,VWS V14.01,2013-09-29 22:44:00,
2013-09-29 18:49:00,70.8,57.6,30.02,SE,145,0.0,0.0,63,0.00,,---,0.00,VWS V14.01,2013-09-29 22:49:00,
2013-09-29 18:54:00,70.6,57.4,30.02,SE,145,0.0,0.0,63,0.00,,---,0.00,VWS V14.01,2013-09-29 22:54:00,
2013-09-29 18:59:00,70.3,58.4,30.02,SE,145,0.0,0.0,66,0.00,,---,0.00,VWS V14.01,2013-09-29 22:59:00,
2013-09-29 19:00:00,70.3,58.4,30.02,SE,145,0.0,0.0,66,0.00,,---,0.00,VWS V14.01,2013-09-29 23:00:00,
2013-09-29 19:04:00,69.7,58.7,30.02,SE,145,0.0,0.0,68,0.00,,---,0.00,VWS V14.01,2013-09-29 23:04:00,
2013-09-29 19:09:00,69.1,58.9,30.02,SE,145,0.0,0.0,70,0.00,,---,0.00,VWS V14.01,2013-09-29 23:09:00,
2013-09-29 19:14:00,68.4,59.0,30.02,SE,145,0.0,0.0,72,0.00,,---,0.00,VWS V14.01,2013-09-29 23:14:00,
2013-09-29 19:19:00,67.9,58.9,30.02,SE,145,0.0,0.0,73,0.00,,---,0.00,VWS V14.01,2013-09-29 23:19:00,
2013-09-29 19:24:00,67.4,58.8,30.02,SE,145,0.0,0.0,74,0.00,,---,0.00,VWS V14.01,2013-09-29 23:24:00,
2013-09-29 19:29:00,66.9,58.7,30.02,SE,145,0.0,0.0,75,0.00,,---,0.00,VWS V14.01,2013-09-29 23:29:00,
2013-09-29 19:30:00,66.9,58.7,30.02,SE,145,0.0,0.0,75,0.00,,---,0.00,VWS V14.01,2013-09-29 23:30:00,
2013-09-29 19:34:00,66.4,58.6,30.03,SE,145,0.0,0.0,76,0.00,,---,0.00,VWS V14.01,2013-09-29 23:34:00,
2013-09-29 19:39:00,66.0,58.6,30.02,SE,145,0.0,0.0,77,0.00,,---,0.00,VWS V14.01,2013-09-29 23:39:00,
2013-09-29 19:44:00,65.7,58.7,30.03,SE,145,0.0,0.0,78,0.00,,---,0.00,VWS V14.01,2013-09-29 23:44:00,
2013-09-29 19:49:00,65.4,58.4,30.03,SE,145,0.0,0.0,78,0.00,,---,0.00,VWS V14.01,2013-09-29 23:49:00,
2013-09-29 19:54:00,65.2,58.5,30.03,SE,145,0.0,0.0,79,0.00,,---,0.00,VWS V14.01,2013-09-29 23:54:00,
2013-09-29 20:00:00,65.0,58.3,30.03,SE,145,0.0,0.0,79,0.00,,---,0.00,VWS V14.01,2013-09-30 00:00:00,
2013-09-29 20:05:00,64.7,58.4,30.03,SE,145,0.0,0.0,80,0.00,,---,0.00,VWS V14.01,2013-09-30 00:05:00,
2013-09-29 20:10:00,64.6,58.3,30.03,SE,145,0.0,0.0,80,0.00,,---,0.00,VWS V14.01,2013-09-30 00:10:00,
2013-09-29 20:15:00,64.4,58.1,30.03,SE,145,0.0,0.0,80,0.00,,---,0.00,VWS V14.01,2013-09-30 00:15:00,
2013-09-29 20:20:00,64.3,58.3,30.04,SE,145,0.0,0.0,81,0.00,,---,0.00,VWS V14.01,2013-09-30 00:20:00,
2013-09-29 20:25:00,64.1,58.2,30.04,SE,145,0.0,0.0,81,0.00,,---,0.00,VWS V14.01,2013-09-30 00:25:00,
2013-09-29 20:30:00,64.0,58.4,30.04,SE,145,0.0,0.0,82,0.00,,---,0.00,VWS V14.01,2013-09-30 00:30:00,
2013-09-29 20:35:00,63.8,58.2,30.04,SE,145,0.0,0.0,82,0.00,,---,0.00,VWS V14.01,2013-09-30 00:35:00,
2013-09-29 20:40:00,63.5,57.9,30.04,SE,145,0.0,0.0,82,0.00,,---,0.00,VWS V14.01,2013-09-30 00:40:00,
2013-09-29 20:45:00,63.3,57.7,30.04,SE,145,0.0,0.0,82,0.00,,---,0.00,VWS V14.01,2013-09-30 00:45:00,
2013-09-29 20:50:00,63.0,57.8,30.04,SE,145,0.0,0.0,83,0.00,,---,0.00,VWS V14.01,2013-09-30 00:50:00,
2013-09-29 20:55:00,62.8,57.9,30.04,SE,145,0.0,0.0,84,0.00,,---,0.00,VWS V14.01,2013-09-30 00:55:00,
2013-09-29 21:00:00,62.6,57.7,30.04,SE,145,0.0,0.0,84,0.00,,---,0.00,VWS V14.01,2013-09-30 01:00:00,
2013-09-29 21:05:00,62.4,57.5,30.04,SE,145,0.0,0.0,84,0.00,,---,0.00,VWS V14.01,2013-09-30 01:05:00,
2013-09-29 21:10:00,62.2,57.6,30.04,SE,145,0.0,0.0,85,0.00,,---,0.00,VWS V14.01,2013-09-30 01:10:00,
2013-09-29 21:15:00,61.9,57.3,30.05,SE,145,0.0,0.0,85,0.00,,---,0.00,VWS V14.01,2013-09-30 01:15:00,
2013-09-29 21:20:00,61.7,57.5,30.05,SE,145,0.0,0.0,86,0.00,,---,0.00,VWS V14.01,2013-09-30 01:20:00,
2013-09-29 21:25:00,61.6,57.4,30.05,SE,145,0.0,0.0,86,0.00,,---,0.00,VWS V14.01,2013-09-30 01:25:00,
2013-09-29 21:30:00,61.5,57.3,30.05,SE,145,0.0,0.0,86,0.00,,---,0.00,VWS V14.01,2013-09-30 01:30:00,
2013-09-29 21:35:00,61.3,57.1,30.05,SE,145,0.0,0.0,86,0.00,,---,0.00,VWS V14.01,2013-09-30 01:35:00,
2013-09-29 21:40:00,61.1,57.2,30.05,SE,145,0.0,0.0,87,0.00,,---,0.00,VWS V14.01,2013-09-30 01:40:00,
2013-09-29 21:45:00,60.9,57.0,30.05,SE,145,0.0,0.0,87,0.00,,---,0.00,VWS V14.01,2013-09-30 01:45:00,
2013-09-29 21:50:00,60.7,56.8,30.05,SE,145,0.0,0.0,87,0.00,,---,0.00,VWS V14.01,2013-09-30 01:50:00,
2013-09-29 21:55:00,60.5,56.9,30.04,SE,145,0.0,0.0,88,0.00,,---,0.00,VWS V14.01,2013-09-30 01:55:00,
2013-09-29 22:00:00,60.4,56.8,30.05,SE,145,0.0,0.0,88,0.00,,---,0.00,VWS V14.01,2013-09-30 02:00:00,
2013-09-29 22:05:00,60.2,56.6,30.04,SE,145,0.0,0.0,88,0.00,,---,0.00,VWS V14.01,2013-09-30 02:05:00,
2013-09-29 22:10:00,60.0,56.4,30.04,SE,145,0.0,0.0,88,0.00,,---,0.00,VWS V14.01,2013-09-30 02:10:00,
2013-09-29 22:15:00,60.0,56.8,30.04,SE,145,0.0,0.0,89,0.00,,---,0.00,VWS V14.01,2013-09-30 02:15:00,
2013-09-29 22:20:00,59.9,56.7,30.04,SE,145,0.0,0.0,89,0.00,,---,0.00,VWS V14.01,2013-09-30 02:20:00,
2013-09-29 22:25:00,59.6,56.4,30.04,SE,145,0.0,0.0,89,0.00,,---,0.00,VWS V14.01,2013-09-30 02:25:00,
2013-09-29 22:30:00,59.4,56.2,30.04,SE,145,0.0,0.0,89,0.00,,---,0.00,VWS V14.01,2013-09-30 02:30:00,
2013-09-29 22:35:00,59.3,56.1,30.04,SE,145,0.0,0.0,89,0.00,,---,0.00,VWS V14.01,2013-09-30 02:35:00,
2013-09-29 22:40:00,59.2,56.3,30.04,SE,145,0.0,0.0,90,0.00,,---,0.00,VWS V14.01,2013-09-30 02:40:00,
2013-09-29 22:45:00,59.0,56.1,30.04,SE,145,0.0,0.0,90,0.00,,---,0.00,VWS V14.01,2013-09-30 02:45:00,
2013-09-29 22:50:00,58.9,56.0,30.04,SE,145,0.0,0.0,90,0.00,,---,0.00,VWS V14.01,2013-09-30 02:50:00,
2013-09-29 22:55:00,58.8,55.9,30.04,SE,145,0.0,0.0,90,0.00,,---,0.00,VWS V14.01,2013-09-30 02:55:00,
2013-09-29 23:00:00,58.7,55.8,30.04,SE,145,0.0,0.0,90,0.00,,---,0.00,VWS V14.01,2013-09-30 03:00:00,
2013-09-29 23:05:00,58.6,55.7,30.04,SE,145,0.0,0.0,90,0.00,,---,0.00,VWS V14.01,2013-09-30 03:05:00,
2013-09-29 23:10:00,58.5,55.6,30.03,SE,145,0.0,0.0,90,0.00,,---,0.00,VWS V14.01,2013-09-30 03:10:00,
2013-09-29 23:15:00,58.4,55.5,30.03,SE,145,0.0,0.0,90,0.00,,---,0.00,VWS V14.01,2013-09-30 03:15:00,
2013-09-29 23:20:00,58.3,55.4,30.03,SE,145,0.0,0.0,90,0.00,,---,0.00,VWS V14.01,2013-09-30 03:20:00,
2013-09-29 23:25:00,58.1,55.2,30.04,SE,145,0.0,0.0,90,0.00,,---,0.00,VWS V14.01,2013-09-30 03:25:00,
2013-09-29 23:30:00,58.0,55.4,30.03,SE,145,0.0,0.0,91,0.00,,---,0.00,VWS V14.01,2013-09-30 03:30:00,
2013-09-29 23:36:00,58.0,55.4,30.04,SE,145,0.0,0.0,91,0.00,,---,0.00,VWS V14.01,2013-09-30 03:36:00,
2013-09-29 23:41:00,58.0,55.1,30.04,SE,145,0.0,0.0,90,0.00,,---,0.00,VWS V14.01,2013-09-30 03:41:00,
2013-09-29 23:46:00,57.8,54.9,30.04,SE,145,0.0,0.0,90,0.00,,---,0.00,VWS V14.01,2013-09-30 03:46:00,
2013-09-29 23:51:00,57.6,54.7,30.03,SE,145,0.0,0.0,90,0.00,,---,0.00,VWS V14.01,2013-09-30 03:51:00,
2013-09-29 23:56:00,57.5,54.6,30.03,SE,145,0.0,0.0,90,0.00,,---,0.00,VWS V14.01,2013-09-30 03:56:00,